Brisbane Airport

Airport
ICAO code: 
YBBN
IATA Code: 
BNE
Summary
ICAO Region: 
APAC
Territory: 
Location: 
Brisbane, Queensland
Serving: 
Brisbane
Elevation: 
13 ft
Coordinates: 
Aerial View: 
27° 23' 29.795" S, 153° 7' 20.765" E
Metar
Observation
YBBN 221100Z 20008KT 9999 FEW040 BKN065 21/17 Q1015
Station
Brisbane Airport M. O
Date/Time
2022-01-22 11:00:00
Wind direction
200°
Wind speed
08 kts
Lowest cloud amount
few clouds
Temperature
21°C
Dew point
17°C
Humidity
77%
QNH
1015 hPa
Weather condition
n/a

Description

Serves the city of Brisbane and the surrounding metropolitan area.

Climatology

Humid “subtropical” climate (Köppen climate classification Cfa) - characterized by hot, humid summers and cool winters. Significant amounts of precipitation occur in all seasons in most areas. Most summer rainfall occurs during thunderstorms and occasional tropical storms.

Runways

Designator Length Width Surface Rops
14/32 1700 30 ASP Yes/Yes
1/19 3560 45 ASP Yes/Yes

SKYbrary Partners:

Safety knowledge contributed by: